Time,TemperatureF,DewpointF,PressureIn,WindDirection,WindDirectionDegrees,WindSpeedMPH,WindSpeedGustMPH,Humidity,HourlyPrecipIn,Conditions,Clouds,dailyrainin,SoftwareType,DateUTC
2013-04-09 00:03:00,30.0,-99.9,-100.00,North,-999,-999.0,-999.0,-999,0.00,,,0.00,,2013-04-09 04:03:00,
2013-04-09 00:13:00,30.0,-99.9,-100.00,North,-999,-999.0,-999.0,-999,0.00,,,0.00,,2013-04-09 04:13:00,
2013-04-09 00:43:00,30.0,-99.9,-100.00,North,-999,-999.0,-999.0,-999,0.00,,,0.00,,2013-04-09 04:43:00,
2013-04-09 00:53:00,30.0,-99.9,-100.00,North,-999,-999.0,-999.0,-999,0.00,,,0.00,,2013-04-09 04:53:00,
2013-04-09 01:13:00,30.0,-99.9,-100.00,North,-999,-999.0,-999.0,-999,0.00,,,0.00,,2013-04-09 05:13:00,
2013-04-09 01:52:00,32.0,-99.9,-100.00,North,-999,-999.0,-999.0,-999,0.00,,,0.00,,2013-04-09 05:52:00,
2013-04-09 02:02:00,32.0,-99.9,-100.00,North,-999,-999.0,-999.0,-999,0.00,,,0.00,,2013-04-09 06:02:00,
2013-04-09 02:12:00,32.0,-99.9,-100.00,North,-999,-999.0,-999.0,-999,0.00,,,0.00,,2013-04-09 06:12:00,
2013-04-09 02:42:00,32.0,-99.9,-100.00,North,-999,-999.0,-999.0,-999,0.00,,,0.00,,2013-04-09 06:42:00,
2013-04-09 02:53:00,32.0,-99.9,-100.00,North,-999,-999.0,-999.0,-999,0.00,,,0.00,,2013-04-09 06:53:00,
2013-04-09 03:02:00,32.0,-99.9,-100.00,North,-999,-999.0,-999.0,-999,0.00,,,0.00,,2013-04-09 07:02:00,
2013-04-09 03:13:00,32.0,-99.9,-100.00,North,-999,-999.0,-999.0,-999,0.00,,,0.00,,2013-04-09 07:13:00,
2013-04-09 03:43:00,33.0,-99.9,-100.00,North,-999,-999.0,-999.0,-999,0.02,,,0.02,,2013-04-09 07:43:00,
2013-04-09 03:53:00,33.0,-99.9,-100.00,North,-999,-999.0,-999.0,-999,0.02,,,0.02,,2013-04-09 07:53:00,
2013-04-09 04:03:00,33.0,-99.9,-100.00,North,-999,-999.0,-999.0,-999,0.02,,,0.02,,2013-04-09 08:03:00,
2013-04-09 04:13:00,33.0,-99.9,-100.00,North,-999,-999.0,-999.0,-999,0.02,,,0.02,,2013-04-09 08:13:00,
2013-04-09 04:43:00,34.0,-99.9,-100.00,North,-999,-999.0,-999.0,-999,0.12,,,0.14,,2013-04-09 08:43:00,
2013-04-09 04:53:00,34.0,-99.9,-100.00,North,-999,-999.0,-999.0,-999,0.12,,,0.14,,2013-04-09 08:53:00,
2013-04-09 05:03:00,34.0,-99.9,-100.00,North,-999,-999.0,-999.0,-999,0.12,,,0.14,,2013-04-09 09:03:00,
2013-04-09 05:13:00,34.0,-99.9,-100.00,North,-999,-999.0,-999.0,-999,0.12,,,0.14,,2013-04-09 09:13:00,
2013-04-09 05:44:00,35.0,-99.9,-100.00,North,-999,-999.0,-999.0,-999,0.07,,,0.21,,2013-04-09 09:44:00,
2013-04-09 05:53:00,35.0,-99.9,-100.00,North,-999,-999.0,-999.0,-999,0.07,,,0.21,,2013-04-09 09:53:00,
2013-04-09 06:05:00,35.0,-99.9,-100.00,North,-999,-999.0,-999.0,-999,0.07,,,0.21,,2013-04-09 10:05:00,
2013-04-09 06:13:00,35.0,-99.9,-100.00,North,-999,-999.0,-999.0,-999,0.07,,,0.21,,2013-04-09 10:13:00,
2013-04-09 06:44:00,34.0,-99.9,-100.00,North,-999,-999.0,-999.0,-999,0.04,,,0.25,,2013-04-09 10:44:00,
2013-04-09 06:55:00,34.0,-99.9,-100.00,North,-999,-999.0,-999.0,-999,0.04,,,0.25,,2013-04-09 10:55:00,
2013-04-09 07:03:00,34.0,-99.9,-100.00,North,-999,-999.0,-999.0,-999,0.04,,,0.25,,2013-04-09 11:03:00,
2013-04-09 07:12:00,34.0,-99.9,-100.00,North,-999,-999.0,-999.0,-999,0.04,,,0.25,,2013-04-09 11:12:00,
2013-04-09 07:43:00,35.0,-99.9,-100.00,North,-999,-999.0,-999.0,-999,0.08,,,0.33,,2013-04-09 11:43:00,
2013-04-09 07:52:00,35.0,-99.9,-100.00,North,-999,-999.0,-999.0,-999,0.08,,,0.33,,2013-04-09 11:52:00,
2013-04-09 08:03:00,35.0,-99.9,-100.00,North,-999,-999.0,-999.0,-999,0.08,,,0.33,,2013-04-09 12:03:00,
2013-04-09 08:12:00,35.0,-99.9,-100.00,North,-999,-999.0,-999.0,-999,0.08,,,0.33,,2013-04-09 12:12:00,
2013-04-09 08:43:00,35.0,-99.9,-100.00,North,-999,-999.0,-999.0,-999,0.01,,,0.34,,2013-04-09 12:43:00,
2013-04-09 08:53:00,35.0,-99.9,-100.00,North,-999,-999.0,-999.0,-999,0.01,,,0.34,,2013-04-09 12:53:00,
2013-04-09 09:03:00,35.0,-99.9,-100.00,North,-999,-999.0,-999.0,-999,0.01,,,0.34,,2013-04-09 13:03:00,
2013-04-09 09:43:00,36.0,-99.9,-100.00,North,-999,-999.0,-999.0,-999,0.00,,,0.34,,2013-04-09 13:43:00,
2013-04-09 09:54:00,36.0,-99.9,-100.00,North,-999,-999.0,-999.0,-999,0.00,,,0.34,,2013-04-09 13:54:00,
2013-04-09 10:04:00,36.0,-99.9,-100.00,North,-999,-999.0,-999.0,-999,0.00,,,0.34,,2013-04-09 14:04:00,
2013-04-09 10:13:00,36.0,-99.9,-100.00,North,-999,-999.0,-999.0,-999,0.00,,,0.34,,2013-04-09 14:13:00,
2013-04-09 10:43:00,38.0,-99.9,-100.00,North,-999,-999.0,-999.0,-999,0.06,,,0.40,,2013-04-09 14:43:00,
2013-04-09 10:53:00,38.0,-99.9,-100.00,North,-999,-999.0,-999.0,-999,0.06,,,0.40,,2013-04-09 14:53:00,
2013-04-09 11:03:00,38.0,-99.9,-100.00,North,-999,-999.0,-999.0,-999,0.06,,,0.40,,2013-04-09 15:03:00,
2013-04-09 11:13:00,38.0,-99.9,-100.00,North,-999,-999.0,-999.0,-999,0.06,,,0.40,,2013-04-09 15:13:00,
2013-04-09 11:45:00,38.0,-99.9,-100.00,North,-999,-999.0,-999.0,-999,0.03,,,0.43,,2013-04-09 15:45:00,
2013-04-09 11:54:00,38.0,-99.9,-100.00,North,-999,-999.0,-999.0,-999,0.03,,,0.43,,2013-04-09 15:54:00,
2013-04-09 12:05:00,38.0,-99.9,-100.00,North,-999,-999.0,-999.0,-999,0.03,,,0.43,,2013-04-09 16:05:00,
2013-04-09 12:14:00,38.0,-99.9,-100.00,North,-999,-999.0,-999.0,-999,0.03,,,0.43,,2013-04-09 16:14:00,
2013-04-09 12:43:00,38.0,-99.9,-100.00,North,-999,-999.0,-999.0,-999,0.01,,,0.44,,2013-04-09 16:43:00,
2013-04-09 12:55:00,38.0,-99.9,-100.00,North,-999,-999.0,-999.0,-999,0.01,,,0.44,,2013-04-09 16:55:00,
2013-04-09 13:03:00,38.0,-99.9,-100.00,North,-999,-999.0,-999.0,-999,0.01,,,0.44,,2013-04-09 17:03:00,
2013-04-09 13:13:00,38.0,-99.9,-100.00,North,-999,-999.0,-999.0,-999,0.01,,,0.44,,2013-04-09 17:13:00,
2013-04-09 13:43:00,40.0,-99.9,-100.00,North,-999,-999.0,-999.0,-999,0.00,,,0.44,,2013-04-09 17:43:00,
2013-04-09 13:55:00,40.0,-99.9,-100.00,North,-999,-999.0,-999.0,-999,0.00,,,0.44,,2013-04-09 17:55:00,
2013-04-09 14:13:00,40.0,-99.9,-100.00,North,-999,-999.0,-999.0,-999,0.00,,,0.44,,2013-04-09 18:13:00,
2013-04-09 14:54:00,40.0,-99.9,-100.00,North,-999,-999.0,-999.0,-999,0.00,,,0.44,,2013-04-09 18:54:00,
2013-04-09 15:03:00,40.0,-99.9,-100.00,North,-999,-999.0,-999.0,-999,0.00,,,0.44,,2013-04-09 19:03:00,
2013-04-09 15:12:00,40.0,-99.9,-100.00,North,-999,-999.0,-999.0,-999,0.00,,,0.44,,2013-04-09 19:12:00,
2013-04-09 15:53:00,39.0,-99.9,-100.00,North,-999,-999.0,-999.0,-999,0.00,,,0.44,,2013-04-09 19:53:00,
2013-04-09 16:03:00,39.0,-99.9,-100.00,North,-999,-999.0,-999.0,-999,0.00,,,0.44,,2013-04-09 20:03:00,
2013-04-09 16:13:00,39.0,-99.9,-100.00,North,-999,-999.0,-999.0,-999,0.00,,,0.44,,2013-04-09 20:13:00,
2013-04-09 16:44:00,38.0,-99.9,-100.00,North,-999,-999.0,-999.0,-999,0.00,,,0.44,,2013-04-09 20:44:00,
2013-04-09 16:53:00,38.0,-99.9,-100.00,North,-999,-999.0,-999.0,-999,0.00,,,0.44,,2013-04-09 20:53:00,
2013-04-09 17:03:00,38.0,-99.9,-100.00,North,-999,-999.0,-999.0,-999,0.00,,,0.44,,2013-04-09 21:03:00,
2013-04-09 17:14:00,38.0,-99.9,-100.00,North,-999,-999.0,-999.0,-999,0.00,,,0.44,,2013-04-09 21:14:00,
2013-04-09 17:54:00,38.0,-99.9,-100.00,North,-999,-999.0,-999.0,-999,0.00,,,0.44,,2013-04-09 21:54:00,
2013-04-09 18:05:00,38.0,-99.9,-100.00,North,-999,-999.0,-999.0,-999,0.00,,,0.44,,2013-04-09 22:05:00,
2013-04-09 18:13:00,38.0,-99.9,-100.00,North,-999,-999.0,-999.0,-999,0.00,,,0.44,,2013-04-09 22:13:00,
2013-04-09 18:43:00,38.0,-99.9,-100.00,North,-999,-999.0,-999.0,-999,0.00,,,0.44,,2013-04-09 22:43:00,
2013-04-09 18:54:00,38.0,-99.9,-100.00,North,-999,-999.0,-999.0,-999,0.00,,,0.44,,2013-04-09 22:54:00,
2013-04-09 19:03:00,38.0,-99.9,-100.00,North,-999,-999.0,-999.0,-999,0.00,,,0.44,,2013-04-09 23:03:00,
2013-04-09 19:13:00,38.0,-99.9,-100.00,North,-999,-999.0,-999.0,-999,0.00,,,0.44,,2013-04-09 23:13:00,
2013-04-09 19:43:00,37.0,-99.9,-100.00,North,-999,-999.0,-999.0,-999,0.00,,,0.44,,2013-04-09 23:43:00,
2013-04-09 19:54:00,37.0,-99.9,-100.00,North,-999,-999.0,-999.0,-999,0.00,,,0.44,,2013-04-09 23:54:00,
2013-04-09 20:04:00,37.0,-99.9,-100.00,North,-999,-999.0,-999.0,-999,0.00,,,0.44,,2013-04-10 00:04:00,
2013-04-09 20:13:00,37.0,-99.9,-100.00,North,-999,-999.0,-999.0,-999,0.00,,,0.44,,2013-04-10 00:13:00,
2013-04-09 21:03:00,37.0,-99.9,-100.00,North,-999,-999.0,-999.0,-999,0.00,,,0.44,,2013-04-10 01:03:00,
2013-04-09 21:13:00,37.0,-99.9,-100.00,North,-999,-999.0,-999.0,-999,0.00,,,0.44,,2013-04-10 01:13:00,
2013-04-09 21:43:00,36.0,-99.9,-100.00,North,-999,-999.0,-999.0,-999,0.00,,,0.44,,2013-04-10 01:43:00,
2013-04-09 21:54:00,36.0,-99.9,-100.00,North,-999,-999.0,-999.0,-999,0.00,,,0.44,,2013-04-10 01:54:00,
2013-04-09 22:13:00,36.0,-99.9,-100.00,North,-999,-999.0,-999.0,-999,0.00,,,0.44,,2013-04-10 02:13:00,
2013-04-09 22:53:00,35.0,-99.9,-100.00,North,-999,-999.0,-999.0,-999,0.00,,,0.44,,2013-04-10 02:53:00,
2013-04-09 23:03:00,35.0,-99.9,-100.00,North,-999,-999.0,-999.0,-999,0.00,,,0.44,,2013-04-10 03:03:00,
2013-04-09 23:13:00,35.0,-99.9,-100.00,North,-999,-999.0,-999.0,-999,0.00,,,0.44,,2013-04-10 03:13:00,
2013-04-09 23:44:00,35.0,-99.9,-100.00,North,-999,-999.0,-999.0,-999,0.00,,,0.44,,2013-04-10 03:44:00,
2013-04-09 23:53:00,35.0,-99.9,-100.00,North,-999,-999.0,-999.0,-999,0.00,,,0.44,,2013-04-10 03:53:00,